This is the latest recevied weather packets stored in our database for station/object KC3ELT-10. If no packets are shown the sender has not sent any weather packets the latest 1 day(s).
| Time | Temp. | Humidity | Pressure | Rain* | Wind** | Luminosity | Snow |
|---|---|---|---|---|---|---|---|
| 1778041679 | 17.78° C | 65% | 1003.4 hPa | 0 mm | 0.89 m/s, 190° | - | - |
| 1778041379 | 17.78° C | 65% | 1003.4 hPa | 0 mm | 0 m/s | - | - |
| 1778041079 | 17.78° C | 65% | 1003.4 hPa | 0 mm | 4.02 m/s, 131° | - | - |
| 1778040779 | 18.33° C | 64% | 1003.2 hPa | 0 mm | 1.34 m/s, 171° | - | - |
| 1778040479 | 18.33° C | 64% | 1003.2 hPa | 0 mm | 2.68 m/s, 162° | - | - |
| 1778040179 | 18.33° C | 63% | 1003.2 hPa | 0 mm | 2.68 m/s, 150° | - | - |
| 1778039879 | 18.33° C | 62% | 1003.3 hPa | 0 mm | 2.68 m/s, 219° | - | - |
| 1778039579 | 18.33° C | 62% | 1003.3 hPa | 0 mm | 2.24 m/s, 176° | - | - |
| 1778039279 | 18.89° C | 61% | 1003.3 hPa | 0 mm | 0.89 m/s, 167° | - | - |
| 1778038979 | 18.89° C | 61% | 1003 hPa | 0 mm | 1.79 m/s, 136° | - | - |
| 1778038679 | 18.89° C | 60% | 1003 hPa | 0 mm | 1.79 m/s, 205° | - | - |
| 1778038379 | 18.89° C | 60% | 1003 hPa | 0 mm | 4.47 m/s, 190° | - | - |
| 1778038079 | 19.44° C | 59% | 1003.1 hPa | 0 mm | 0.89 m/s, 174° | - | - |
| 1778037779 | 19.44° C | 58% | 1003.1 hPa | 0 mm | 2.24 m/s, 88° | - | - |
| 1778037479 | 19.44° C | 58% | 1003.1 hPa | 0 mm | 1.34 m/s, 226° | - | - |
| 1778037179 | 19.44° C | 58% | 1003.1 hPa | 0 mm | 4.92 m/s, 167° | - | - |
| 1778036879 | 19.44° C | 57% | 1003.1 hPa | 0 mm | 1.79 m/s, 147° | - | - |
| 1778036579 | 19.44° C | 56% | 1003.1 hPa | 0 mm | 1.79 m/s, 163° | - | - |
| 1778036279 | 19.44° C | 56% | 1003.1 hPa | 0 mm | 2.24 m/s, 206° | - | - |
| 1778035979 | 19.44° C | 56% | 1003.1 hPa | 0 mm | 2.68 m/s, 145° | - | - |
| 1778035679 | 20° C | 55% | 1003.1 hPa | 0 mm | 6.71 m/s, 214° | - | - |
| 1778035379 | 20° C | 55% | 1003.4 hPa | 0 mm | 1.34 m/s, 167° | - | - |
| 1778035079 | 20° C | 55% | 1003.4 hPa | 0 mm | 2.68 m/s, 193° | - | - |
| 1778034779 | 20° C | 54% | 1003.4 hPa | 0 mm | 1.79 m/s, 218° | - | - |
| 1778034479 | 20° C | 54% | 1003.4 hPa | 0 mm | 2.68 m/s, 191° | - | - |
* Rain latest hour (hover to see other rain measurements)
** Current wind speed in m/s (hover to see current wind gust speed)